sat.trackr.live / text

‹ back to catalog

STARLINK-5922

NORAD 55925 · 2023-037M

PAYLOAD ACTIVE UNKNOWN

§ Identity

Operator
Country
US
Launch date
2023-03-17
Launch site
AFWTR
Launch vehicle
Mass (kg)
RCS (m²)

Purposes: comms

External: N2YO · Heavens-Above · Gunter

§ Orbital elements

Epoch: 2026-09-20T04:36:39.121344Z

Period
96.11 min
Inclination
69.9985°
Eccentricity
0.0003468
Mean motion
14.98327375 rev/d
Perigee alt
569.7 km
Apogee alt
574.5 km
Semi-major
6,950.2 km
B*
-2.0946e-5
RAAN
173.9730°
Arg perigee
269.8608°
Mean anomaly
90.2154°
Rev number
19,262

§ Raw data

STARLINK-59221 55925U 23037M   26263.19211946 -.00000343  00000+0 -20946-4 0  99992 55925  69.9985 173.9730 0003468 269.8608  90.2154 14.98327375192624

JSON: /api/v1/satellites/55925 · /tle

For live sub-satellite position, see the globe view (requires WebGL).

§ Visibility from observer

Set your observer location to see the next 7 days of passes ≥ 10°. The values pass through the URL so the page stays shareable.

No JS? Fill the form by hand. The geolocation button needs JavaScript.